| time (UTC) | temp C | wind direction | speed KPH | gust KPH | rain 1hr cm | rain 24hr cm | rain mn cm | humidity % | barometer mb |
| 20260506143447 | 9 | 323 | 3.2 | 12.9 | 0.00 | 0.08 | 0.00 | 61 | 1013.5 |
| 20260506142948 | 9 | 86 | 3.2 | 9.7 | 0.00 | 0.08 | 0.00 | 61 | 1013.5 |
| 20260506142446 | 9 | 290 | 1.6 | 9.7 | 0.00 | 0.08 | 0.00 | 61 | 1013.5 |
| 20260506141948 | 8 | 63 | 3.2 | 9.7 | 0.00 | 0.08 | 0.00 | 62 | 1013.4 |
| 20260506141720 | 8 | 63 | 4.8 | 17.7 | 0.00 | 0.08 | 0.00 | 63 | 1013.4 |
| 20260506140947 | 8 | 11 | 6.4 | 17.7 | 0.00 | 0.08 | 0.00 | 62 | 1013.4 |
| 20260506140717 | 8 | 54 | 6.4 | 14.5 | 0.00 | 0.08 | 0.00 | 64 | 1013.4 |
| 20260506140220 | 8 | 352 | 4.8 | 16.1 | 0.00 | 0.08 | 0.00 | 64 | 1013.4 |
| 20260506135712 | 8 | 11 | 4.8 | 16.1 | 0.00 | 0.08 | 0.00 | 63 | 1013.4 |
| 20260506134936 | 7 | 338 | 4.8 | 16.1 | 0.00 | 0.08 | 0.00 | 64 | 1013.2 |
| 20260506134702 | 8 | 342 | 4.8 | 12.9 | 0.00 | 0.08 | 0.00 | 64 | 1013.2 |
| 20260506133924 | 8 | 337 | 4.8 | 12.9 | 0.00 | 0.08 | 0.00 | 65 | 1013.2 |
| 20260506133417 | 7 | 79 | 6.4 | 14.5 | 0.00 | 0.08 | 0.00 | 65 | 1013.2 |
| 20260506132912 | 7 | 9 | 6.4 | 16.1 | 0.00 | 0.08 | 0.00 | 64 | 1013.1 |
| 20260506132406 | 7 | 293 | 6.4 | 16.1 | 0.00 | 0.08 | 0.00 | 66 | 1013.0 |
| 20260506131900 | 7 | 29 | 6.4 | 19.3 | 0.00 | 0.08 | 0.00 | 66 | 1013.0 |
| 20260506131355 | 7 | 54 | 6.4 | 19.3 | 0.00 | 0.08 | 0.00 | 66 | 1012.9 |
| 20260506130855 | 7 | 35 | 4.8 | 19.3 | 0.00 | 0.08 | 0.00 | 65 | 1012.9 |
| 20260506130356 | 7 | 311 | 3.2 | 9.7 | 0.00 | 0.08 | 0.00 | 67 | 1012.8 |
| 20260506125857 | 7 | 317 | 4.8 | 14.5 | 0.00 | 0.08 | 0.00 | 66 | 1012.5 |
| 20260506125625 | 7 | 14 | 6.4 | 14.5 | 0.00 | 0.08 | 0.00 | 66 | 1012.4 |
| 20260506124853 | 7 | 34 | 4.8 | 14.5 | 0.00 | 0.08 | 0.00 | 66 | 1012.3 |
| 20260506124358 | 7 | 356 | 4.8 | 12.9 | 0.00 | 0.08 | 0.00 | 66 | 1012.3 |
| 20260506124354 | 7 | 23 | 6.4 | 12.9 | 0.00 | 0.08 | 0.00 | 66 | 1012.3 |
| 20260506123623 | 7 | 50 | 3.2 | 9.7 | 0.00 | 0.08 | 0.00 | 67 | 1012.3 |
| 20260506122853 | 7 | 51 | 3.2 | 12.9 | 0.00 | 0.08 | 0.00 | 67 | 1012.1 |
| 20260506122351 | 7 | 21 | 4.8 | 12.9 | 0.00 | 0.08 | 0.00 | 66 | 1012.1 |
| 20260506121850 | 7 | 323 | 4.8 | 11.3 | 0.00 | 0.08 | 0.00 | 65 | 1012.2 |
| 20260506121352 | 7 | 58 | 3.2 | 11.3 | 0.00 | 0.08 | 0.00 | 66 | 1012.4 |
| 20260506120859 | 7 | 42 | 1.6 | 8.0 | 0.00 | 0.08 | 0.00 | 65 | 1011.9 |
| 20260506120851 | 7 | 356 | 1.6 | 9.7 | 0.00 | 0.08 | 0.00 | 65 | 1012.3 |
| 20260506120122 | 7 | 25 | 1.6 | 8.0 | 0.00 | 0.08 | 0.00 | 65 | 1011.9 |
| 20260506115355 | 7 | 37 | 3.2 | 11.3 | 0.00 | 0.08 | 0.00 | 65 | 1011.6 |
| 20260506115351 | 7 | 27 | 1.6 | 11.3 | 0.00 | 0.08 | 0.00 | 66 | 1011.7 |
| 20260506114352 | 7 | 328 | 3.2 | 11.3 | 0.00 | 0.08 | 0.00 | 65 | 1011.5 |
| 20260506113852 | 7 | 9 | 3.2 | 9.7 | 0.00 | 0.08 | 0.00 | 65 | 1011.7 |
| 20260506113350 | 7 | 20 | 1.6 | 9.7 | 0.00 | 0.08 | 0.00 | 66 | 1011.5 |
| 20260506112850 | 7 | 300 | 1.6 | 4.8 | 0.00 | 0.08 | 0.00 | 67 | 1011.4 |
| 20260506112622 | 7 | 311 | 1.6 | 4.8 | 0.00 | 0.08 | 0.00 | 67 | 1011.4 |
| 20260506111851 | 7 | 13 | 1.6 | 6.4 | 0.00 | 0.08 | 0.00 | 67 | 1011.4 |
| 20260506111350 | 7 | 11 | 1.6 | 6.4 | 0.00 | 0.08 | 0.00 | 68 | 1011.3 |
| 20260506110852 | 7 | 332 | 1.6 | 6.4 | 0.00 | 0.08 | 0.00 | 67 | 1011.3 |
| 20260506110350 | 7 | 340 | 1.6 | 6.4 | 0.00 | 0.08 | 0.00 | 67 | 1011.2 |
| 20260506110120 | 7 | 345 | 1.6 | 6.4 | 0.00 | 0.08 | 0.00 | 67 | 1011.1 |
| 20260506105349 | 7 | 338 | 1.6 | 6.4 | 0.00 | 0.08 | 0.00 | 68 | 1011.1 |
| 20260506104849 | 7 | 39 | 3.2 | 6.4 | 0.00 | 0.08 | 0.00 | 68 | 1010.7 |
| 20260506104620 | 7 | 36 | 3.2 | 9.7 | 0.00 | 0.08 | 0.00 | 69 | 1010.7 |
| 20260506103849 | 7 | 51 | 3.2 | 9.7 | 0.00 | 0.08 | 0.00 | 69 | 1010.6 |
| 20260506103349 | 7 | 347 | 1.6 | 9.7 | 0.00 | 0.08 | 0.00 | 70 | 1010.7 |
| 20260506102850 | 7 | 1 | 1.6 | 8.0 | 0.00 | 0.08 | 0.00 | 70 | 1010.5 |
| 20260506102348 | 7 | 359 | 1.6 | 8.0 | 0.00 | 0.08 | 0.00 | 70 | 1010.2 |
| 20260506101849 | 7 | 355 | 1.6 | 6.4 | 0.00 | 0.08 | 0.00 | 70 | 1010.4 |
| 20260506101620 | 7 | 35 | 1.6 | 6.4 | 0.00 | 0.08 | 0.00 | 70 | 1010.1 |
| 20260506100849 | 7 | 54 | 3.2 | 11.3 | 0.00 | 0.08 | 0.00 | 70 | 1010.2 |
| 20260506100349 | 7 | 18 | 3.2 | 11.3 | 0.00 | 0.08 | 0.00 | 69 | 1010.2 |
| 20260506095850 | 7 | 352 | 3.2 | 12.9 | 0.00 | 0.08 | 0.00 | 70 | 1010.2 |
| 20260506095350 | 7 | 54 | 3.2 | 12.9 | 0.00 | 0.08 | 0.00 | 70 | 1010.1 |
| 20260506094848 | 8 | 30 | 3.2 | 11.3 | 0.00 | 0.08 | 0.00 | 70 | 1009.9 |
| 20260506094350 | 8 | 44 | 1.6 | 8.0 | 0.00 | 0.08 | 0.00 | 69 | 1009.9 |
| 20260506093851 | 8 | 59 | 3.2 | 8.0 | 0.00 | 0.08 | 0.00 | 69 | 1010.1 |
| 20260506093351 | 8 | 351 | 3.2 | 9.7 | 0.00 | 0.08 | 0.00 | 69 | 1010.1 |
| 20260506092852 | 8 | 48 | 1.6 | 9.7 | 0.00 | 0.08 | 0.00 | 68 | 1010.1 |
| 20260506092353 | 8 | 68 | 1.6 | 9.7 | 0.00 | 0.08 | 0.00 | 67 | 1010.0 |
| 20260506091846 | 8 | 9 | 3.2 | 9.7 | 0.00 | 0.08 | 0.00 | 66 | 1009.7 |
| 20260506091602 | 9 | 9 | 4.8 | 12.9 | 0.00 | 0.08 | 0.00 | 65 | 1009.7 |
| 20260506090811 | 9 | 39 | 4.8 | 12.9 | 0.00 | 0.08 | 0.00 | 62 | 1009.7 |
| 20260506090304 | 9 | 354 | 1.6 | 11.3 | 0.00 | 0.08 | 0.00 | 61 | 1009.7 |
| 20260506085805 | 9 | 43 | 3.2 | 8.0 | 0.00 | 0.08 | 0.00 | 60 | 1009.6 |
| 20260506085306 | 9 | 347 | 3.2 | 8.0 | 0.00 | 0.08 | 0.00 | 60 | 1009.8 |
| 20260506084804 | 9 | 297 | 1.6 | 8.0 | 0.00 | 0.08 | 0.00 | 60 | 1009.8 |
| 20260506084304 | 9 | 37 | 1.6 | 6.4 | 0.00 | 0.08 | 0.00 | 59 | 1009.6 |
| 20260506083804 | 9 | 33 | 1.6 | 6.4 | 0.00 | 0.08 | 0.00 | 59 | 1009.4 |
| 20260506083535 | 9 | 358 | 0.0 | 6.4 | 0.00 | 0.08 | 0.00 | 59 | 1009.5 |
| 20260506082805 | 9 | 319 | 1.6 | 6.4 | 0.00 | 0.08 | 0.00 | 59 | 1009.5 |
| 20260506082301 | 9 | 330 | 1.6 | 4.8 | 0.00 | 0.08 | 0.00 | 59 | 1009.4 |
| 20260506081800 | 10 | 309 | 1.6 | 8.0 | 0.00 | 0.08 | 0.00 | 58 | 1009.5 |
| 20260506081301 | 10 | 304 | 1.6 | 8.0 | 0.00 | 0.08 | 0.00 | 58 | 1009.6 |
| 20260506080800 | 10 | 286 | 1.6 | 6.4 | 0.00 | 0.08 | 0.00 | 57 | 1009.6 |
| 20260506080300 | 10 | 295 | 1.6 | 6.4 | 0.00 | 0.08 | 0.00 | 57 | 1009.6 |
| 20260506073241 | 10 | 325 | 1.6 | 6.4 | 0.00 | 0.08 | 0.00 | 57 | 1009.4 |
| 20260506073012 | 10 | 130 | 3.2 | 9.7 | 0.00 | 0.08 | 0.00 | 58 | 1009.4 |
| 20260506072241 | 10 | 313 | 3.2 | 9.7 | 0.00 | 0.08 | 0.00 | 57 | 1009.4 |
| 20260506071742 | 10 | 318 | 1.6 | 6.4 | 0.00 | 0.08 | 0.00 | 57 | 1009.4 |
| 20260506071238 | 10 | 304 | 0.0 | 6.4 | 0.00 | 0.08 | 0.00 | 58 | 1009.7 |
| 20260506070740 | 10 | 275 | 0.0 | 3.2 | 0.00 | 0.08 | 0.00 | 58 | 1009.5 |
| 20260506070236 | 10 | 276 | 1.6 | 3.2 | 0.00 | 0.08 | 0.00 | 58 | 1009.5 |
| 20260506062224 | 10 | 297 | 1.6 | 6.4 | 0.00 | 0.08 | 0.00 | 56 | 1009.7 |
| 20260506061719 | 10 | 259 | 1.6 | 6.4 | 0.00 | 0.08 | 0.00 | 56 | 1009.9 |
| 20260506061213 | 10 | 271 | 1.6 | 6.4 | 0.00 | 0.08 | 0.00 | 56 | 1009.8 |
| 20260506060707 | 10 | 270 | 1.6 | 8.0 | 0.00 | 0.08 | 0.00 | 55 | 1009.7 |
| 20260506060200 | 10 | 247 | 1.6 | 8.0 | 0.00 | 0.08 | 0.00 | 55 | 1009.7 |
| 20260506051102 | 11 | 245 | 1.6 | 8.0 | 0.00 | 0.10 | 0.00 | 54 | 1009.8 |
| 20260506050602 | 11 | 220 | 1.6 | 8.0 | 0.00 | 0.15 | 0.00 | 54 | 1009.8 |
| 20260506050103 | 11 | 271 | 1.6 | 6.4 | 0.00 | 0.20 | 0.00 | 54 | 1009.8 |
| 20260506045058 | 11 | 271 | 1.6 | 6.4 | 0.00 | 0.20 | 0.00 | 53 | 1009.7 |
| 20260506044558 | 11 | 256 | 1.6 | 6.4 | 0.00 | 0.20 | 0.00 | 53 | 1009.8 |
| 20260506044058 | 11 | 239 | 1.6 | 4.8 | 0.00 | 0.20 | 0.00 | 53 | 1009.8 |
| 20260506043559 | 11 | 210 | 1.6 | 8.0 | 0.00 | 0.20 | 0.00 | 53 | 1009.6 |
| 20260506043057 | 11 | 269 | 1.6 | 8.0 | 0.00 | 0.20 | 0.00 | 52 | 1009.6 |
| 20260506042556 | 11 | 250 | 0.0 | 6.4 | 0.00 | 0.20 | 0.00 | 53 | 1009.6 |
| 20260506042326 | 11 | 273 | 0.0 | 1.6 | 0.00 | 0.20 | 0.00 | 53 | 1009.4 |
| 20260506041555 | 11 | 274 | 0.0 | 4.8 | 0.00 | 0.20 | 0.00 | 52 | 1009.5 |
| 20260506041054 | 11 | 244 | 1.6 | 4.8 | 0.00 | 0.20 | 0.00 | 52 | 1009.4 |
| 20260506040555 | 11 | 297 | 0.0 | 4.8 | 0.00 | 0.20 | 0.00 | 52 | 1009.5 |
| 20260506040056 | 11 | 306 | 0.0 | 1.6 | 0.00 | 0.20 | 0.00 | 52 | 1009.6 |
| 20260506035553 | 11 | 286 | 0.0 | 1.6 | 0.00 | 0.20 | 0.20 | 52 | 1009.6 |
| 20260506035053 | 11 | 264 | 0.0 | 4.8 | 0.00 | 0.20 | 0.20 | 52 | 1009.7 |
| 20260506034552 | 11 | 274 | 1.6 | 4.8 | 0.00 | 0.20 | 0.20 | 51 | 1009.7 |
| 20260506034053 | 11 | 274 | 0.0 | 4.8 | 0.00 | 0.20 | 0.20 | 51 | 1009.8 |
| 20260506033549 | 11 | 245 | 0.0 | 3.2 | 0.00 | 0.20 | 0.20 | 51 | 1009.8 |
| 20260506033049 | 11 | 240 | 0.0 | 3.2 | 0.00 | 0.20 | 0.20 | 51 | 1009.9 |
| 20260506032550 | 11 | 241 | 1.6 | 4.8 | 0.00 | 0.20 | 0.20 | 51 | 1010.0 |
| 20260506032049 | 11 | 252 | 1.6 | 6.4 | 0.00 | 0.20 | 0.20 | 51 | 1009.9 |
| 20260506031820 | 11 | 226 | 3.2 | 6.4 | 0.00 | 0.20 | 0.20 | 50 | 1009.8 |
| 20260506031049 | 11 | 283 | 3.2 | 9.7 | 0.00 | 0.20 | 0.20 | 50 | 1009.7 |
| 20260506030547 | 11 | 249 | 3.2 | 9.7 | 0.00 | 0.20 | 0.20 | 49 | 1009.7 |
| 20260506030320 | 11 | 252 | 1.6 | 8.0 | 0.00 | 0.20 | 0.20 | 49 | 1009.8 |
| 20260506025547 | 11 | 236 | 1.6 | 8.0 | 0.00 | 0.20 | 0.20 | 50 | 1009.9 |
| 20260506025319 | 11 | 222 | 1.6 | 4.8 | 0.00 | 0.20 | 0.20 | 50 | 1009.9 |
| 20260506024548 | 11 | 258 | 0.0 | 3.2 | 0.00 | 0.20 | 0.20 | 50 | 1009.8 |
| 20260506024048 | 11 | 290 | 1.6 | 11.3 | 0.00 | 0.20 | 0.20 | 50 | 1009.8 |
| 20260506023551 | 11 | 323 | 3.2 | 11.3 | 0.00 | 0.20 | 0.20 | 49 | 1009.8 |
| 20260506023050 | 11 | 262 | 1.6 | 8.0 | 0.00 | 0.20 | 0.20 | 49 | 1009.8 |
| 20260506022551 | 11 | 259 | 3.2 | 11.3 | 0.00 | 0.20 | 0.20 | 49 | 1009.9 |
| 20260506022046 | 12 | 240 | 3.2 | 9.7 | 0.00 | 0.20 | 0.20 | 49 | 1009.9 |
| 20260506021530 | 12 | 265 | 1.6 | 9.7 | 0.00 | 0.20 | 0.20 | 49 | 1009.8 |
| 20260506021034 | 12 | 234 | 1.6 | 6.4 | 0.00 | 0.20 | 0.20 | 51 | 1009.8 |
| 20260506020530 | 12 | 233 | 1.6 | 8.0 | 0.00 | 0.20 | 0.20 | 50 | 1009.8 |
| 20260506020028 | 12 | 239 | 1.6 | 9.7 | 0.00 | 0.20 | 0.20 | 50 | 1009.7 |
| 20260506015528 | 12 | 269 | 3.2 | 9.7 | 0.00 | 0.20 | 0.20 | 50 | 1009.7 |
| 20260506015027 | 12 | 243 | 3.2 | 9.7 | 0.00 | 0.20 | 0.20 | 50 | 1009.6 |
| 20260506014527 | 12 | 278 | 3.2 | 8.0 | 0.00 | 0.20 | 0.20 | 51 | 1009.6 |
| 20260506014026 | 12 | 276 | 3.2 | 8.0 | 0.00 | 0.23 | 0.20 | 53 | 1009.5 |
| 20260506013525 | 12 | 229 | 3.2 | 6.4 | 0.00 | 0.23 | 0.20 | 54 | 1009.5 |
| 20260506013259 | 12 | 239 | 1.6 | 6.4 | 0.00 | 0.23 | 0.20 | 53 | 1009.4 |
| 20260506012525 | 12 | 250 | 1.6 | 4.8 | 0.00 | 0.23 | 0.20 | 53 | 1009.2 |
| 20260506012027 | 12 | 297 | 1.6 | 11.3 | 0.00 | 0.23 | 0.20 | 54 | 1009.4 |
| 20260506011524 | 12 | 291 | 1.6 | 11.3 | 0.00 | 0.23 | 0.20 | 54 | 1009.3 |
| 20260506011024 | 12 | 267 | 1.6 | 8.0 | 0.00 | 0.23 | 0.20 | 53 | 1009.3 |
| 20260506010531 | 12 | 258 | 1.6 | 8.0 | 0.00 | 0.23 | 0.20 | 54 | 1009.2 |
| 20260506010523 | 12 | 276 | 1.6 | 6.4 | 0.00 | 0.23 | 0.20 | 54 | 1009.4 |
| 20260506005523 | 12 | 252 | 3.2 | 8.0 | 0.00 | 0.23 | 0.20 | 53 | 1009.4 |
| 20260506005024 | 12 | 256 | 3.2 | 12.9 | 0.00 | 0.23 | 0.20 | 53 | 1009.3 |
| 20260506004525 | 12 | 304 | 3.2 | 12.9 | 0.00 | 0.23 | 0.20 | 54 | 1009.3 |
| 20260506004027 | 12 | 232 | 3.2 | 9.7 | 0.00 | 0.23 | 0.20 | 54 | 1009.3 |
| 20260506003526 | 12 | 287 | 3.2 | 9.7 | 0.00 | 0.23 | 0.20 | 54 | 1009.4 |
| 20260506003027 | 12 | 283 | 3.2 | 14.5 | 0.00 | 0.23 | 0.20 | 54 | 1009.3 |
| 20260506002527 | 12 | 238 | 3.2 | 14.5 | 0.00 | 0.23 | 0.20 | 54 | 1009.3 |
| 20260506002024 | 12 | 218 | 3.2 | 9.7 | 0.00 | 0.23 | 0.20 | 55 | 1009.2 |
| 20260506001523 | 12 | 243 | 3.2 | 9.7 | 0.00 | 0.23 | 0.20 | 54 | 1009.2 |
| 20260506001024 | 12 | 249 | 3.2 | 9.7 | 0.00 | 0.23 | 0.20 | 55 | 1009.1 |
| 20260506000523 | 12 | 293 | 3.2 | 9.7 | 0.00 | 0.23 | 0.20 | 55 | 1008.9 |
| 20260506000023 | 12 | 287 | 3.2 | 11.3 | 0.00 | 0.23 | 0.20 | 56 | 1008.7 |
| 20260505235529 | 12 | 245 | 4.8 | 12.9 | 0.00 | 0.28 | 0.20 | 57 | 1008.6 |
| 20260505235524 | 12 | 278 | 3.2 | 11.3 | 0.00 | 0.25 | 0.20 | 56 | 1008.7 |
| 20260505234525 | 12 | 307 | 4.8 | 12.9 | 0.00 | 0.28 | 0.20 | 57 | 1008.6 |
| 20260505234025 | 12 | 302 | 4.8 | 12.9 | 0.00 | 0.28 | 0.20 | 58 | 1008.6 |
| 20260505233523 | 13 | 311 | 4.8 | 12.9 | 0.00 | 0.28 | 0.20 | 60 | 1008.5 |
| 20260505233024 | 13 | 264 | 4.8 | 11.3 | 0.00 | 0.28 | 0.20 | 62 | 1008.5 |
| 20260505232523 | 13 | 236 | 4.8 | 11.3 | 0.00 | 0.28 | 0.20 | 62 | 1008.4 |
| 20260505232023 | 13 | 274 | 3.2 | 9.7 | 0.00 | 0.28 | 0.20 | 64 | 1008.5 |
| 20260505231524 | 13 | 251 | 1.6 | 9.7 | 0.00 | 0.28 | 0.20 | 65 | 1008.5 |
| 20260505231023 | 13 | 235 | 1.6 | 6.4 | 0.00 | 0.28 | 0.20 | 66 | 1008.5 |
| 20260505230754 | 13 | 255 | 1.6 | 4.8 | 0.00 | 0.28 | 0.20 | 66 | 1008.6 |
| 20260505230023 | 13 | 255 | 3.2 | 11.3 | 0.00 | 0.28 | 0.20 | 66 | 1008.5 |
| 20260505225523 | 13 | 288 | 3.2 | 11.3 | 0.00 | 0.28 | 0.20 | 66 | 1008.6 |
| 20260505225023 | 13 | 314 | 3.2 | 9.7 | 0.00 | 0.28 | 0.20 | 66 | 1008.6 |
| 20260505224525 | 13 | 266 | 3.2 | 9.7 | 0.00 | 0.28 | 0.20 | 66 | 1008.7 |
| 20260505224017 | 13 | 303 | 4.8 | 11.3 | 0.00 | 0.28 | 0.20 | 65 | 1008.8 |
| 20260505223522 | 13 | 309 | 3.2 | 12.9 | 0.00 | 0.28 | 0.20 | 66 | 1008.8 |
| 20260505223517 | 13 | 235 | 3.2 | 11.3 | 0.00 | 0.28 | 0.20 | 66 | 1008.8 |
| 20260505222518 | 13 | 258 | 4.8 | 16.1 | 0.00 | 0.28 | 0.20 | 65 | 1008.8 |
| 20260505222250 | 13 | 281 | 3.2 | 16.1 | 0.00 | 0.28 | 0.20 | 66 | 1008.8 |
| 20260505221516 | 13 | 269 | 3.2 | 12.9 | 0.00 | 0.28 | 0.20 | 67 | 1008.7 |
| 20260505221013 | 13 | 298 | 6.4 | 14.5 | 0.00 | 0.28 | 0.20 | 66 | 1008.7 |
| 20260505220514 | 13 | 305 | 6.4 | 17.7 | 0.00 | 0.28 | 0.20 | 66 | 1008.8 |
| 20260505220013 | 13 | 268 | 8.0 | 20.9 | 0.00 | 0.28 | 0.20 | 66 | 1008.8 |
| 20260505215511 | 13 | 236 | 6.4 | 20.9 | 0.00 | 0.28 | 0.20 | 66 | 1008.8 |
| 20260505215011 | 13 | 276 | 4.8 | 16.1 | 0.00 | 0.28 | 0.20 | 66 | 1008.8 |
| 20260505214510 | 13 | 293 | 6.4 | 19.3 | 0.00 | 0.28 | 0.20 | 67 | 1008.9 |
| 20260505214009 | 13 | 288 | 6.4 | 19.3 | 0.00 | 0.28 | 0.20 | 67 | 1008.8 |
| 20260505213742 | 13 | 293 | 4.8 | 11.3 | 0.00 | 0.28 | 0.20 | 67 | 1008.7 |
| 20260505213238 | 13 | 301 | 4.8 | 11.3 | 0.00 | 0.28 | 0.20 | 66 | 1008.6 |
| 20260505213115 | 13 | 240 | 4.8 | 11.3 | 0.00 | 0.28 | 0.20 | 66 | 1008.6 |
| 20260505212003 | 13 | 287 | 4.8 | 12.9 | 0.00 | 0.28 | 0.20 | 66 | 1008.5 |
| 20260505211504 | 13 | 259 | 4.8 | 12.9 | 0.00 | 0.28 | 0.20 | 67 | 1008.4 |
| 20260505211005 | 13 | 309 | 6.4 | 14.5 | 0.00 | 0.28 | 0.20 | 67 | 1008.5 |
| 20260505210504 | 13 | 240 | 4.8 | 16.1 | 0.00 | 0.28 | 0.20 | 67 | 1008.5 |
| 20260505210001 | 13 | 281 | 4.8 | 16.1 | 0.00 | 0.28 | 0.20 | 68 | 1008.6 |
| 20260505205503 | 13 | 243 | 4.8 | 17.7 | 0.00 | 0.28 | 0.20 | 67 | 1008.7 |
| 20260505205002 | 13 | 230 | 3.2 | 17.7 | 0.00 | 0.28 | 0.20 | 67 | 1008.8 |
| 20260505204503 | 13 | 276 | 4.8 | 12.9 | 0.00 | 0.28 | 0.20 | 68 | 1008.8 |
| 20260505204001 | 13 | 242 | 6.4 | 12.9 | 0.00 | 0.28 | 0.20 | 68 | 1008.9 |
| 20260505203500 | 13 | 271 | 4.8 | 12.9 | 0.00 | 0.28 | 0.20 | 68 | 1008.8 |
| 20260505202959 | 13 | 275 | 4.8 | 16.1 | 0.00 | 0.28 | 0.20 | 67 | 1008.7 |
| 20260505202459 | 12 | 271 | 6.4 | 16.1 | 0.00 | 0.28 | 0.20 | 68 | 1009.0 |
| 20260505202232 | 12 | 270 | 4.8 | 16.1 | 0.00 | 0.28 | 0.20 | 68 | 1008.9 |
| 20260505201730 | 12 | 213 | 4.8 | 12.9 | 0.00 | 0.28 | 0.20 | 68 | 1008.9 |
| 20260505200954 | 12 | 273 | 4.8 | 12.9 | 0.00 | 0.28 | 0.20 | 68 | 1008.9 |
| 20260505200448 | 12 | 240 | 4.8 | 12.9 | 0.00 | 0.28 | 0.20 | 69 | 1009.0 |
| 20260505195946 | 12 | 231 | 4.8 | 16.1 | 0.00 | 0.28 | 0.20 | 69 | 1008.9 |
| 20260505195942 | 12 | 242 | 4.8 | 16.1 | 0.00 | 0.28 | 0.20 | 68 | 1008.8 |
| 20260505195210 | 12 | 268 | 4.8 | 12.9 | 0.00 | 0.28 | 0.20 | 68 | 1009.0 |
| 20260505194440 | 12 | 295 | 4.8 | 12.9 | 0.00 | 0.28 | 0.20 | 68 | 1009.1 |
| 20260505193940 | 12 | 253 | 6.4 | 12.9 | 0.00 | 0.28 | 0.20 | 68 | 1009.1 |
| 20260505193439 | 12 | 231 | 4.8 | 16.1 | 0.00 | 0.28 | 0.20 | 68 | 1009.1 |
| 20260505192939 | 12 | 264 | 4.8 | 17.7 | 0.00 | 0.28 | 0.20 | 69 | 1009.1 |
| 20260505192440 | 12 | 275 | 4.8 | 24.1 | 0.00 | 0.28 | 0.20 | 69 | 1009.1 |
| 20260505191941 | 12 | 232 | 3.2 | 24.1 | 0.00 | 0.28 | 0.20 | 69 | 1009.1 |
| 20260505191440 | 12 | 272 | 4.8 | 17.7 | 0.00 | 0.28 | 0.20 | 70 | 1009.2 |
| 20260505190944 | 12 | 252 | 4.8 | 12.9 | 0.00 | 0.28 | 0.20 | 70 | 1009.2 |
| 20260505190940 | 12 | 242 | 4.8 | 17.7 | 0.00 | 0.28 | 0.20 | 70 | 1009.2 |
| 20260505185937 | 12 | 261 | 6.4 | 16.1 | 0.00 | 0.28 | 0.20 | 69 | 1009.2 |
| 20260505185708 | 12 | 239 | 6.4 | 17.7 | 0.00 | 0.28 | 0.20 | 69 | 1009.1 |
| 20260505184937 | 12 | 282 | 6.4 | 19.3 | 0.00 | 0.28 | 0.20 | 69 | 1009.0 |
| 20260505184439 | 12 | 245 | 6.4 | 19.3 | 0.00 | 0.28 | 0.20 | 70 | 1008.9 |
| 20260505183938 | 12 | 221 | 8.0 | 19.3 | 0.00 | 0.28 | 0.20 | 70 | 1008.9 |
| 20260505183431 | 12 | 236 | 8.0 | 19.3 | 0.03 | 0.28 | 0.20 | 69 | 1008.7 |
| 20260505182925 | 12 | 242 | 6.4 | 19.3 | 0.03 | 0.28 | 0.20 | 69 | 1008.7 |
| 20260505182420 | 12 | 247 | 6.4 | 17.7 | 0.03 | 0.28 | 0.20 | 71 | 1008.6 |
| 20260505181914 | 12 | 221 | 4.8 | 16.1 | 0.03 | 0.28 | 0.20 | 72 | 1008.6 |
| 20260505181408 | 12 | 325 | 4.8 | 12.9 | 0.03 | 0.28 | 0.20 | 73 | 1008.7 |
| 20260505180901 | 11 | 261 | 4.8 | 12.9 | 0.05 | 0.28 | 0.20 | 73 | 1008.6 |
| 20260505180626 | 11 | 219 | 4.8 | 12.9 | 0.05 | 0.28 | 0.20 | 75 | 1008.7 |
| 20260505175850 | 11 | 204 | 4.8 | 12.9 | 0.05 | 0.28 | 0.20 | 75 | 1008.7 |
| 20260505175344 | 11 | 205 | 3.2 | 11.3 | 0.08 | 0.28 | 0.20 | 75 | 1008.7 |
| 20260505174837 | 11 | 231 | 3.2 | 12.9 | 0.08 | 0.28 | 0.20 | 76 | 1008.5 |
| 20260505174602 | 11 | 233 | 4.8 | 20.9 | 0.08 | 0.28 | 0.20 | 75 | 1008.5 |
| 20260505173826 | 11 | 231 | 8.0 | 20.9 | 0.05 | 0.25 | 0.18 | 74 | 1008.5 |
| 20260505173552 | 11 | 238 | 8.0 | 24.1 | 0.05 | 0.25 | 0.18 | 74 | 1008.6 |
| 20260505172813 | 11 | 264 | 6.4 | 24.1 | 0.05 | 0.25 | 0.18 | 75 | 1008.6 |
| 20260505172308 | 11 | 272 | 4.8 | 14.5 | 0.05 | 0.25 | 0.18 | 76 | 1008.7 |
| 20260505171801 | 11 | 262 | 4.8 | 14.5 | 0.05 | 0.25 | 0.18 | 76 | 1008.6 |
| 20260505171259 | 11 | 310 | 4.8 | 12.9 | 0.05 | 0.25 | 0.18 | 77 | 1008.4 |
| 20260505171254 | 11 | 267 | 6.4 | 14.5 | 0.03 | 0.23 | 0.15 | 76 | 1008.6 |
| 20260505170243 | 12 | 297 | 6.4 | 19.3 | 0.03 | 0.23 | 0.15 | 75 | 1008.7 |
| 20260505165738 | 12 | 244 | 6.4 | 19.3 | 0.03 | 0.23 | 0.15 | 73 | 1008.7 |
| 20260505165232 | 13 | 279 | 6.4 | 19.3 | 0.00 | 0.20 | 0.13 | 72 | 1008.9 |
| 20260505164726 | 13 | 283 | 6.4 | 16.1 | 0.00 | 0.20 | 0.13 | 71 | 1008.6 |
| 20260505164219 | 13 | 230 | 6.4 | 16.1 | 0.00 | 0.20 | 0.13 | 68 | 1008.5 |
| 20260505163714 | 13 | 265 | 6.4 | 17.7 | 0.00 | 0.20 | 0.13 | 67 | 1008.4 |
| 20260505163207 | 14 | 295 | 6.4 | 17.7 | 0.00 | 0.20 | 0.13 | 66 | 1008.4 |
| 20260505162932 | 14 | 252 | 6.4 | 16.1 | 0.00 | 0.20 | 0.13 | 65 | 1008.4 |
| 20260505162156 | 15 | 224 | 6.4 | 19.3 | 0.00 | 0.20 | 0.13 | 61 | 1008.2 |
| 20260505161650 | 15 | 279 | 6.4 | 19.3 | 0.00 | 0.20 | 0.13 | 59 | 1008.1 |
| 20260505161416 | 15 | 257 | 6.4 | 17.7 | 0.00 | 0.20 | 0.13 | 57 | 1008.0 |
| 20260505160637 | 15 | 269 | 6.4 | 17.7 | 0.00 | 0.20 | 0.13 | 58 | 1007.8 |
| 20260505160402 | 15 | 277 | 6.4 | 16.1 | 0.00 | 0.20 | 0.13 | 57 | 1007.5 |
| 20260505153055 | 15 | 6 | 1.6 | 4.8 | 0.00 | 0.20 | 0.13 | 68 | 1007.6 |
| 20260505152549 | 15 | 6 | 1.6 | 4.8 | 0.00 | 0.20 | 0.13 | 68 | 1007.5 |
| 20260505152044 | 15 | 11 | 0.0 | 6.4 | 0.00 | 0.20 | 0.13 | 68 | 1007.1 |
| 20260505151537 | 15 | 47 | 1.6 | 6.4 | 0.00 | 0.20 | 0.13 | 68 | 1007.1 |
| 20260505151031 | 15 | 16 | 1.6 | 8.0 | 0.00 | 0.20 | 0.13 | 69 | 1007.1 |
| 20260505150526 | 15 | 359 | 1.6 | 8.0 | 0.00 | 0.20 | 0.13 | 68 | 1007.1 |